User: anonymous   Login
Location: Unspecified
(0.0000°N, 0.0000°E)
Time: 18:28:13
(UTC+00:00)
Language:

COSMOS 2468 - Orbit

View from above orbital plane
View from above orbital plane
View from above satellite
View from above satellite

Ground track
Ground track

The orbit data is extracted from the following two-line orbital elements,

1 37154U 10043C   16179.10914314  .00000028  00000-0  12970-3 0  9997
2 37154  82.4592 182.3586 0014170 338.7076  21.3416 12.43624710263213
Epoch (UTC): 27 June 2016 02:37:09
Eccentricity: 0.0014170
inclination: 82.4592°
perigee height: 1480 km
apogee height: 1502 km
right ascension of ascending node: 182.3586°
argument of perigee: 338.7076°
revolutions per day: 12.43624710
mean anomaly at epoch: 21.3416°
orbit number at epoch: 26321

The dashed part of the orbit path shows where the satellite is in the earth's shadow,  

DLR